TimeEST,TemperatureF,Dew PointF,Humidity,Sea Level PressureIn,VisibilityMPH,Wind Direction,Wind SpeedMPH,Gust SpeedMPH,PrecipitationIn,Events,Conditions,WindDirDegrees,DateUTC
12:58 AM,52.9,49.1,87,29.55,10.0,SW,15.0,-,N/A,,Scattered Clouds,230,2013-03-06 05:58:00
1:33 AM,53.6,50.0,88,29.53,10.0,WSW,15.0,-,N/A,,Mostly Cloudy,240,2013-03-06 06:33:00
1:38 AM,53.6,50.0,88,29.53,10.0,WSW,17.3,-,N/A,,Mostly Cloudy,240,2013-03-06 06:38:00
1:58 AM,53.6,49.3,85,29.54,10.0,West,16.1,25.3,N/A,,Mostly Cloudy,260,2013-03-06 06:58:00
2:03 AM,53.6,50.0,88,29.53,10.0,WNW,18.4,25.3,N/A,,Mostly Cloudy,290,2013-03-06 07:03:00
2:08 AM,53.6,48.2,82,29.53,10.0,West,18.4,31.1,N/A,,Mostly Cloudy,280,2013-03-06 07:08:00
2:18 AM,53.6,46.4,77,29.53,10.0,West,19.6,27.6,N/A,,Mostly Cloudy,270,2013-03-06 07:18:00
2:58 AM,51.4,45.1,79,29.55,10.0,WNW,23.0,31.1,0.01,,Overcast,290,2013-03-06 07:58:00
3:23 AM,48.2,42.8,82,29.55,10.0,WNW,13.8,23.0,N/A,,Overcast,300,2013-03-06 08:23:00
3:28 AM,48.2,42.8,82,29.56,10.0,West,17.3,26.5,N/A,,Overcast,280,2013-03-06 08:28:00
3:43 AM,48.2,41.0,76,29.56,10.0,WNW,21.9,29.9,N/A,,Overcast,290,2013-03-06 08:43:00
3:49 AM,46.4,39.2,76,29.57,10.0,WNW,20.7,32.2,N/A,Rain,Light Rain,300,2013-03-06 08:49:00
3:58 AM,46.4,40.3,79,29.59,9.0,WNW,16.1,23.0,0.00,Rain,Light Rain,300,2013-03-06 08:58:00
4:13 AM,44.6,41.0,87,29.58,10.0,West,12.7,23.0,N/A,,Light Drizzle,280,2013-03-06 09:13:00
4:18 AM,44.6,41.0,87,29.59,10.0,West,8.1,23.0,N/A,,Light Drizzle,280,2013-03-06 09:18:00
4:25 AM,44.6,41.0,87,29.59,10.0,West,13.8,19.6,N/A,Rain,Light Rain,280,2013-03-06 09:25:00
4:40 AM,44.6,41.0,87,29.60,9.0,NW,16.1,21.9,N/A,Rain,Rain,320,2013-03-06 09:40:00
4:41 AM,44.6,41.0,87,29.60,9.0,NNW,16.1,21.9,N/A,Rain,Rain,330,2013-03-06 09:41:00
4:56 AM,42.8,39.2,87,29.60,10.0,WNW,11.5,-,N/A,Rain,Light Rain,290,2013-03-06 09:56:00
4:58 AM,42.1,38.8,88,29.61,10.0,WNW,11.5,-,0.04,Rain,Light Rain,290,2013-03-06 09:58:00
5:09 AM,42.8,37.4,81,29.61,10.0,WNW,18.4,24.2,N/A,,Overcast,290,2013-03-06 10:09:00
5:58 AM,41.7,32.9,71,29.64,10.0,WNW,16.1,19.6,0.00,,Mostly Cloudy,300,2013-03-06 10:58:00
6:58 AM,40.6,29.3,64,29.65,10.0,WNW,13.8,-,N/A,,Scattered Clouds,290,2013-03-06 11:58:00
7:58 AM,41.5,25.2,52,29.68,10.0,WNW,16.1,24.2,N/A,,Scattered Clouds,290,2013-03-06 12:58:00
8:58 AM,42.6,24.3,48,29.70,10.0,WNW,18.4,29.9,N/A,,Clear,300,2013-03-06 13:58:00
9:58 AM,43.5,23.2,45,29.71,10.0,WNW,21.9,32.2,N/A,,Overcast,300,2013-03-06 14:58:00
10:58 AM,45.5,23.7,42,29.73,10.0,WNW,19.6,31.1,N/A,,Scattered Clouds,290,2013-03-06 15:58:00
11:58 AM,47.5,23.7,39,29.73,10.0,NW,19.6,29.9,N/A,,Scattered Clouds,310,2013-03-06 16:58:00
12:58 PM,47.7,23.2,38,29.73,10.0,WNW,29.9,40.3,N/A,,Scattered Clouds,300,2013-03-06 17:58:00
1:58 PM,49.1,23.7,37,29.73,10.0,NNW,16.1,33.4,N/A,,Mostly Cloudy,330,2013-03-06 18:58:00
2:52 PM,50.0,24.8,37,29.75,10.0,NNW,15.0,29.9,N/A,,Overcast,340,2013-03-06 19:52:00
2:58 PM,49.1,25.2,39,29.76,10.0,NW,17.3,26.5,N/A,,Overcast,320,2013-03-06 19:58:00
3:58 PM,49.3,25.5,40,29.80,10.0,NW,18.4,29.9,N/A,,Overcast,320,2013-03-06 20:58:00
4:58 PM,48.2,26.6,43,29.84,10.0,NW,15.0,25.3,N/A,,Overcast,320,2013-03-06 21:58:00
5:58 PM,46.9,26.8,45,29.90,10.0,NW,12.7,-,N/A,,Overcast,310,2013-03-06 22:58:00
6:58 PM,47.1,28.0,48,29.94,10.0,NNW,15.0,21.9,N/A,,Overcast,330,2013-03-06 23:58:00
7:58 PM,45.5,27.9,50,29.99,10.0,NNW,17.3,26.5,N/A,,Mostly Cloudy,330,2013-03-07 00:58:00
8:58 PM,43.9,27.5,53,30.00,10.0,North,8.1,19.6,N/A,,Partly Cloudy,350,2013-03-07 01:58:00
9:58 PM,42.3,27.5,56,30.02,10.0,NNW,11.5,16.1,N/A,,Clear,340,2013-03-07 02:58:00
10:58 PM,40.5,27.3,59,30.05,10.0,NNW,11.5,-,N/A,,Clear,340,2013-03-07 03:58:00
11:58 PM,38.8,27.3,63,30.04,10.0,NNW,10.4,-,N/A,,Clear,340,2013-03-07 04:58:00